Location: Peebles
(55.6412°N, 3.1714°W)
Time: 10:59:39
(UTC+01:00)

NOSS 3-3 (A) - Pass Details

Date: 03 February 2022
Orbit: 789 x 1423 km, 63.4° (Epoch: 23 April)

Event Time Altitude Azimuth Distance (km) Brightness Sun altitude
Rises 04:31:30 0° 165° (SSE) 3,373 6.8 -29.7°
Reaches altitude 10° 04:34:44 10° 145° (SE) 2,520 6.4 -29.2°
Maximum altitude 04:38:15 17° 107° (ESE) 2,182 6.4 -28.8°
Drops below altitude 10° 04:42:02 10° 71° (ENE) 2,750 7.3 -28.2°
Sets 04:45:47 0° 52° (NE) 3,837 8.1 -27.7°
